Torna al catalogo

STARLINK-37538

AttivoComunicazioniSSO
NORAD 68844·PAYLOAD·🇺🇸 United States

Lanciato Apr 26, 2026 da Vandenberg Space Force Base

Loading…

Prossimi Passaggi (prossime 24 ore)

TLE

AggiornatoSource: CelesTrak SupGP

Epoca: Sep 14, 2026, 23:16 UTC

1 68844C 26094F   26257.96993056  .00051802  00000+0  16081-2 0  2570
2 68844  97.2836 271.1303 0001482  87.7307  48.0571 15.33412547    12

Traccia STARLINK-37538 in tempo reale con AllMySat

Download on the App Store